GFSSW_2pvu_pres_168.txt.gz
Presure
169 175 161 166 160 165 168 146 170 160 157 172 165 164 160 152 155 160 160 153 160 153 159 155 157 168 176 166 169 166 160 169 165 164 168 168 166 152 164 171 175 170 169 171 176
175 163 171 177 154 179 155 156 161 157 164 159 160 165 166 175 173 164 159 162 161 162 161 156 157 168 161 167 175 169 176 165 160 161 157 160 166 161 152 167 176 172 176 173 174
159 163 168 162 162 159 151 169 156 168 169 177 169 165 172 171 161 164 170 163 161 161 154 154 172 171 172 171 173 164 167 174 166 167 167 170 171 169 179 175 167 168 163 156 175
150 161 175 173 160 170 169 177 165 169 165 168 173 166 167 183 174 170 165 177 170 173 168 165 174 174 173 182 179 171 172 175 160 167 173 166 166 163 164 173 176 166 174 174 174
157 161 173 168 167 173 168 168 169 167 170 161 163 183 172 154 179 163 167 161 165 170 170 176 186 185 183 178 151 179 183 160 161 164 170 179 185 173 170 174 176 177 170 174 178
168 178 182 177 165 174 174 171 183 176 173 176 192 181 157 165 171 166 172 171 176 178 180 176 179 179 186 187 185 178 179 181 190 190 184 179 189 188 182 170 165 164 168 174 175
167 171 169 171 170 179 176 177 179 182 184 173 185 184 187 190 189 178 175 180 172 174 178 175 176 178 184 179 179 190 188 187 182 179 182 179 181 185 161 164 167 174 172 175 177
172 177 168 170 162 166 175 182 219 286 270 258 248 235 245 208 204 190 190 190 196 181 179 187 178 184 183 189 180 190 187 186 188 179 180 178 173 184 189 179 189 189 195 197 194
176 177 168 161 180 207 247 297 237 243 233 207 212 217 221 228 202 247 216 189 192 191 194 192 187 188 193 184 204 187 189 177 170 182 173 182 189 185 224 187 182 199 196 197 197
174 168 188 195 188 225 273 240 230 202 205 209 328 332 313 302 211 224 209 251 203 199 191 191 194 194 184 199 182 198 184 180 195 206 169 189 188 235 177 199 199 195 188 184 188
187 177 191 183 213 244 243 212 193 207 193 302 309 172 206 217 325 329 229 214 197 217 196 205 205 212 188 189 140 176 178 151 168 181 186 195 227 198 199 166 189 182 185 173 182
182 183 198 201 213 238 213 218 218 228 272 227 288 302 303 306 309 196 208 220 214 249 217 204 203 204 196 172 187 181 178 183 183 171 198 224 197 160 180 179 197 180 161 185 200
167 192 184 218 224 243 195 174 210 244 210 208 241 166 290 294 303 304 199 196 210 211 171 210 189 203 193 192 189 197 195 184 194 194 221 213 180 177 183 187 177 182 181 204 216
178 190 184 221 213 219 192 207 207 232 209 139 241 268 277 286 259 194 209 204 199 139 204 215 145 181 137 193 207 168 189 182 202 215 201 185 176 171 177 174 185 180 191 255 264
187 184 204 206 136 189 194 213 206 211 212 208 213 254 264 224 280 283 287 167 213 196 187 194 200 130 207 204 137 192 144 140 164 203 163 167 171 190 171 183 194 219 243 260 260
200 195 201 173 207 175 195 153 209 201 226 206 213 212 212 212 179 161 160 171 202 167 146 207 167 124 165 128 136 196 134 139 207 159 174 171 161 200 187 187 187 211 249 260 288
201 189 205 203 203 182 194 197 209 201 201 219 206 208 209 206 181 207 180 120 205 173 179 119 147 176 123 173 131 152 138 146 172 153 181 154 161 153 166 188 218 265 258 275 320
202 190 204 195 203 182 175 195 207 207 198 196 206 174 207 206 212 154 211 164 133 191 141 143 147 148 128 114 125 129 136 177 162 192 182 185 163 172 190 160 243 252 260 288 330
188 192 197 112 115 141 130 110 196 208 196 204 138 173 171 156 198 151 200 200 188 144 201 126 166 205 131 126 179 156 133 180 135 180 151 159 161 208 194 229 239 254 285 306 335
191 190 170 197 156 193 174 190 193 200 130 142 205 196 153 156 152 182 172 151 180 108 132 200 155 150 167 181 149 187 159 133 134 196 157 181 173 201 207 243 261 274 296 344 327
187 180 192 103 193 201 200 187 191 180 194 177 140 211 169 197 136 205 139 203 185 132 109 200 207 137 142 217 180 153 178 153 138 157 153 202 169 228 240 273 287 293 339 346 345
194 194 188 190 201 186 193 202 189 195 148 141 192 120 148 205 127 184 126 211 145 192 208 191 179 114 205 203 205 147 150 207 158 185 198 182 228 238 252 292 301 291 348 349 349
177 177 192 177 202 163 188 190 190 194 145 179 145 142 139 146 197 138 199 174 171 206 209 206 166 196 172 146 133 139 199 195 173 160 218 166 224 206 268 280 283 328 317 355 335
178 185 205 189 195 189 193 191 192 190 160 146 162 189 149 137 178 204 165 150 135 166 127 151 192 174 174 199 185 194 167 185 211 197 189 184 232 280 288 281 282 332 310 354 323
227 187 217 193 190 193 192 180 196 195 151 127 195 140 139 142 159 187 145 203 150 185 140 136 180 195 204 197 198 215 201 200 223 230 162 214 266 291 295 285 318 329 333 312 324
217 191 202 191 186 167 188 195 202 197 190 138 190 133 124 138 137 122 194 205 151 120 141 191 174 211 202 199 176 166 227 157 163 255 174 259 291 310 286 294 319 351 360 344 333
221 175 207 183 181 188 194 190 194 193 191 196 189 162 129 131 202 150 161 145 142 132 126 184 213 209 189 190 212 220 231 251 259 272 268 285 270 309 296 326 316 356 336 330 349

GFSSW_2pvu_pres_171.txt.gz
Presure
175 178 172 181 172 178 170 158 161 172 169 176 168 177 167 164 162 169 173 161 158 168 160 168 168 166 165 169 169 168 173 166 165 165 164 167 174 171 172 170 172 170 173 165 177
165 165 167 164 176 170 168 155 169 155 169 165 172 168 158 180 174 172 164 171 157 159 169 162 165 159 166 163 160 167 171 171 165 167 175 171 168 166 164 164 167 167 176 176 173
164 170 171 172 164 164 158 156 165 176 156 158 160 172 156 167 168 163 175 173 164 173 164 162 170 164 165 155 154 160 170 169 169 175 174 167 176 173 166 167 168 170 174 169 178
165 162 172 165 160 164 163 166 159 163 156 161 168 160 162 174 169 177 176 173 177 169 170 171 161 168 160 166 174 173 174 171 172 175 171 175 179 175 163 169 175 169 171 170 168
160 174 171 174 170 158 179 179 169 160 175 181 161 183 164 167 171 174 172 168 175 163 175 173 178 170 170 168 174 175 182 181 185 170 161 170 179 164 166 168 172 175 181 185 182
171 174 162 165 171 174 180 182 182 172 175 173 175 174 190 187 176 183 189 161 166 179 168 186 165 170 175 180 180 180 178 181 179 177 180 181 180 182 180 180 183 182 181 182 185
171 174 169 167 174 170 171 166 177 179 173 169 182 187 197 202 179 181 195 187 180 177 184 165 177 173 174 176 172 170 175 181 179 172 175 183 190 183 186 178 176 184 184 178 179
181 164 178 173 174 157 171 180 170 172 272 258 248 246 249 253 255 257 263 263 206 192 189 186 176 178 184 179 174 178 177 177 180 175 178 187 183 189 183 183 172 170 169 175 171
168 178 176 185 176 170 165 191 199 206 256 232 230 223 196 208 269 230 219 220 232 207 206 205 197 194 192 191 191 177 188 191 182 190 201 185 182 187 174 188 173 185 186 191 210
169 184 174 168 188 165 172 188 213 229 236 215 201 206 296 310 321 328 336 336 209 228 237 253 210 190 195 192 192 198 192 188 199 191 178 195 180 189 185 189 183 193 195 221 211
163 177 191 179 192 158 180 199 228 252 211 222 202 246 223 295 304 236 202 297 325 246 217 201 252 208 202 198 196 192 192 207 200 191 167 165 185 174 181 189 188 198 225 205 198
172 183 180 164 193 174 184 189 220 235 195 218 228 211 210 271 286 294 302 292 241 317 220 217 214 193 244 214 196 198 200 200 200 187 187 191 196 191 188 195 200 220 208 182 171
173 176 151 173 178 178 189 192 213 197 195 215 210 187 210 249 259 278 286 297 279 196 216 217 217 217 239 132 213 208 208 172 192 198 161 166 180 168 193 189 204 207 178 167 168
184 182 183 164 160 189 202 209 213 193 194 200 199 230 207 221 221 220 274 285 293 208 198 154 205 202 202 141 218 198 198 188 139 156 200 157 170 195 165 178 140 196 169 166 175
186 185 185 189 159 190 201 200 213 192 193 211 201 228 203 214 217 216 261 263 276 272 116 209 205 203 200 196 196 201 141 152 178 182 131 179 134 217 207 144 167 152 154 177 173
185 189 180 198 168 188 189 202 211 199 197 199 210 200 209 203 207 210 210 133 151 158 120 177 209 162 194 130 123 155 179 135 138 122 141 165 177 200 150 146 173 165 176 176 191
185 191 169 190 174 190 191 201 208 203 190 200 209 203 167 199 202 206 175 207 207 180 166 182 194 136 198 171 133 171 162 184 171 124 181 138 163 143 167 149 178 182 177 184 177
184 188 181 198 186 188 189 192 202 203 184 193 193 209 208 201 199 168 204 203 206 209 207 198 140 192 140 165 118 140 132 123 204 155 126 166 208 136 177 189 180 150 186 184 199
183 192 193 200 194 202 187 201 201 201 188 187 193 198 209 208 190 196 199 196 159 155 191 164 177 142 119 145 199 135 112 213 135 216 120 165 193 157 133 193 150 159 189 222 220
191 184 188 188 186 197 185 190 200 200 187 188 190 191 198 208 193 175 182 200 196 145 129 159 171 133 131 210 209 129 142 181 145 201 170 174 185 184 152 187 191 186 262 267 294
188 183 190 185 148 188 168 161 192 171 189 192 187 189 152 194 197 203 203 197 201 196 138 155 178 178 213 196 141 130 108 167 128 204 164 179 123 181 169 140 242 254 271 295 292
197 171 171 177 177 186 206 183 192 193 184 192 191 187 194 140 173 180 199 204 167 185 106 139 205 208 158 130 164 202 206 147 184 202 193 196 191 77 235 143 143 287 297 320 331
200 205 172 172 183 194 188 182 138 186 194 192 192 192 193 143 164 145 145 178 139 134 139 176 157 119 151 145 207 195 164 195 187 123 192 179 151 98 132 177 283 303 282 325 329
208 204 205 211 190 218 220 186 185 160 191 201 180 190 187 160 149 140 138 145 181 149 121 149 173 167 141 131 200 200 139 205 201 197 182 161 189 148 201 283 297 308 337 318 323
195 207 203 212 217 206 195 176 181 206 197 192 196 194 197 142 196 184 177 143 178 146 157 180 198 192 122 189 175 211 204 207 198 188 157 226 198 137 206 203 290 308 339 307 347
207 208 193 198 213 205 226 220 184 184 189 196 196 194 195 194 135 196 199 141 134 154 185 108 156 126 144 184 207 196 221 207 194 191 234 268 259 252 266 272 297 304 327 337 358
213 214 205 208 218 206 207 211 220 205 192 197 189 167 193 196 138 135 150 132 139 148 204 192 168 147 208 132 207 209 198 205 197 255 249 186 233 266 294 296 290 325 334 340 358

GFSSW_2pvu_pres_174.txt.gz
Presure
177 174 178 178 179 184 183 180 185 180 177 167 164 171 164 177 165 167 167 162 170 169 171 170 161 161 156 160 164 161 164 170 160 168 166 170 174 166 163 164 167 183 180 183 187
176 173 172 176 178 173 180 172 179 178 168 158 164 172 167 171 163 162 167 175 174 170 165 169 165 160 167 172 171 167 173 171 171 170 173 178 176 172 176 177 177 174 176 179 182
174 174 177 172 170 170 171 177 172 177 181 165 167 168 169 162 157 170 171 153 173 170 165 177 166 171 166 176 167 164 165 172 164 161 168 170 168 168 171 174 170 172 181 174 174
163 174 165 161 163 171 171 170 163 172 177 176 170 166 158 168 165 169 173 171 154 165 171 172 179 172 175 175 173 176 171 158 162 167 175 177 150 177 178 182 173 177 179 170 172
167 171 169 155 157 165 175 173 184 173 174 183 184 188 173 175 189 167 172 176 169 167 163 179 176 178 182 163 168 168 170 173 171 169 173 174 181 181 188 191 171 170 180 174 171
163 159 163 159 162 174 171 163 170 170 168 156 170 176 179 179 181 179 183 173 189 188 169 176 172 171 181 178 184 170 168 166 172 177 180 189 183 185 163 185 187 188 186 186 186
161 166 160 169 172 173 172 169 177 165 180 176 179 181 175 181 250 257 205 275 202 206 179 177 191 168 168 162 185 191 177 176 176 177 174 179 181 181 178 175 176 182 188 190 185
161 149 164 172 180 184 168 146 165 166 176 169 181 202 216 236 235 233 236 269 252 273 255 218 191 190 190 178 179 178 176 170 175 172 179 177 178 177 177 176 177 188 183 182 190
162 171 172 168 166 174 182 176 181 165 178 178 188 242 227 225 208 199 257 331 273 229 226 251 268 266 206 194 189 179 178 177 182 178 181 179 189 188 183 181 197 191 185 186 183
169 169 173 173 177 174 177 167 175 190 170 187 214 240 208 210 202 214 218 309 317 329 323 284 224 221 257 196 206 195 195 186 184 190 184 187 187 188 188 187 180 181 196 176 180
170 175 166 170 173 180 181 163 169 188 194 197 216 227 190 201 223 208 212 289 264 310 199 320 323 212 218 223 258 261 212 191 191 180 186 188 190 194 205 182 188 170 181 196 192
161 165 169 171 173 187 168 189 160 189 187 206 216 214 211 202 209 202 240 262 288 298 301 284 225 324 212 214 205 254 261 206 163 189 190 182 199 193 192 178 197 198 195 203 184
172 173 173 170 175 171 169 183 189 183 186 199 217 204 204 198 210 201 212 213 260 285 292 299 223 313 316 214 213 205 120 210 216 186 196 198 183 184 154 201 183 138 176 159 167
183 176 173 178 173 172 183 154 177 178 187 198 217 199 197 203 205 203 204 216 243 276 283 282 289 278 216 217 216 214 207 171 207 209 211 134 204 128 205 133 131 137 98 148 161
188 172 180 178 176 157 180 185 191 188 184 189 211 200 187 214 198 186 206 212 211 244 270 270 234 204 203 201 197 198 185 113 168 143 118 172 128 142 137 193 138 134 140 174 142
178 188 176 166 180 158 191 184 184 183 178 196 207 205 194 203 209 206 199 207 203 209 187 250 202 220 184 189 142 179 175 129 161 145 188 140 140 130 128 185 125 131 137 191 206
187 186 187 190 190 186 186 176 186 185 181 199 200 207 187 195 206 207 198 200 204 206 205 171 130 143 195 177 176 124 201 127 183 198 133 120 169 180 184 134 130 167 148 178 132
199 175 188 189 188 181 196 187 173 190 179 199 191 206 185 190 194 206 210 196 201 203 199 205 152 205 124 177 172 170 138 146 199 133 179 190 186 212 119 140 195 127 131 190 177
191 198 182 194 183 192 198 195 178 188 176 201 191 202 204 186 192 194 197 209 210 183 200 143 175 162 198 166 145 141 147 113 199 129 135 197 147 107 148 139 198 128 198 193 185
180 194 199 190 181 175 179 170 192 190 186 200 187 194 201 199 190 192 194 197 201 210 167 205 156 181 133 170 192 139 138 218 220 219 203 198 140 147 206 203 160 185 185 149 172
202 204 197 193 195 187 178 190 187 191 182 190 178 185 188 198 195 187 194 199 196 196 168 171 186 170 182 171 207 151 209 212 148 139 173 179 187 126 175 125 194 198 163 183 146
199 206 199 194 202 197 189 186 199 182 179 187 189 194 188 194 197 199 187 193 143 195 194 196 141 198 198 141 150 140 152 156 182 195 207 176 200 200 206 196 203 187 168 173 299
210 198 202 204 200 183 195 193 182 183 121 105 164 197 174 191 194 195 193 139 190 144 196 186 198 136 179 183 191 127 202 142 127 139 201 191 209 199 169 201 204 191 194 261 193
236 211 207 203 195 193 194 202 160 171 166 179 189 200 185 188 189 194 169 200 182 148 147 143 169 171 151 168 125 172 146 156 141 167 134 200 189 214 137 200 205 168 278 180 291
233 215 220 197 206 203 206 204 207 214 206 201 141 207 209 187 192 187 193 196 166 197 151 138 148 143 144 190 199 187 201 151 137 137 204 209 253 257 260 279 172 149 160 271 291
237 226 218 216 201 199 204 201 194 210 183 212 216 214 196 184 184 185 195 195 196 200 200 150 172 137 145 135 146 208 197 133 125 133 153 211 253 272 273 279 271 272 143 283 296
242 232 213 225 216 209 204 193 196 204 208 209 207 214 195 214 179 188 188 198 220 140 181 195 155 142 159 150 238 193 154 191 216 245 246 193 248 271 254 175 154 272 279 292 303

GFSSW_2pvu_pres_180.txt.gz
Presure
188 196 193 193 194 189 185 190 191 187 185 185 182 179 179 179 176 177 185 171 176 175 184 165 171 173 178 163 181 173 187 177 170 187 177 175 185 175 178 172 177 178 185 189 190
181 183 182 183 179 180 182 179 177 176 171 169 176 178 175 171 182 185 171 162 169 172 183 184 168 171 180 183 173 189 171 182 177 172 176 173 179 173 171 174 166 185 180 179 177
164 178 182 177 179 177 177 175 175 172 178 179 178 174 173 175 174 180 170 165 160 162 172 164 157 173 162 160 175 170 185 187 172 155 162 179 176 172 175 174 174 172 175 174 170
177 164 178 177 178 177 174 174 176 176 176 173 171 174 175 177 167 170 171 169 166 161 169 162 172 178 178 176 175 155 169 178 179 181 166 168 185 167 166 175 183 181 178 179 181
174 170 173 163 180 177 179 175 175 170 161 163 168 167 169 176 181 174 166 174 184 187 183 189 169 168 174 176 178 177 176 170 179 180 176 177 173 175 175 171 177 166 168 174 177
167 173 173 168 165 169 171 168 168 165 154 161 168 169 172 168 168 178 188 179 182 181 177 177 179 184 188 187 193 180 171 171 173 183 178 180 181 180 172 170 163 170 174 173 178
172 176 167 172 172 165 170 178 182 177 169 177 175 176 180 173 165 181 178 172 165 184 200 248 245 241 246 233 179 181 185 188 174 177 175 172 174 179 186 178 176 176 176 177 180
171 174 171 164 163 162 169 167 167 168 175 156 169 169 167 179 175 191 160 203 185 203 230 217 217 223 225 331 250 272 198 190 194 181 178 178 169 183 175 169 170 171 173 187 183
179 172 175 169 173 176 168 165 167 157 165 172 175 165 178 164 175 188 167 192 191 228 207 207 221 219 216 289 277 238 266 249 193 194 191 184 174 172 172 181 186 186 182 180 181
190 176 172 177 175 170 174 167 169 160 175 177 164 161 168 178 182 178 200 194 220 210 200 206 207 205 284 326 308 337 216 271 244 194 185 185 195 172 180 180 184 181 175 184 182
177 189 176 163 182 173 171 170 175 166 179 169 176 177 177 168 156 196 174 200 221 197 209 205 201 222 218 311 318 332 337 212 266 282 211 197 197 194 193 188 187 180 180 183 185
189 193 190 190 164 182 176 177 169 181 173 175 174 172 163 177 162 178 179 200 222 190 207 206 210 218 283 297 307 315 327 336 233 246 276 241 233 205 204 199 191 193 198 197 190
202 191 195 187 189 187 178 180 171 178 177 172 175 172 180 153 177 165 185 195 217 188 206 202 205 210 265 274 290 304 213 323 329 212 215 216 234 256 260 255 229 222 229 235 175
215 201 183 195 184 186 178 174 191 179 182 177 177 182 178 158 180 164 195 190 209 185 209 199 203 208 208 259 257 278 295 233 223 321 202 212 213 210 146 244 248 249 143 140 209
209 172 193 193 182 184 193 183 188 178 179 175 168 191 182 160 182 189 189 196 205 190 202 197 204 200 208 233 233 238 245 262 284 299 207 208 205 138 206 205 206 133 178 137 205
213 214 200 203 191 198 184 186 182 192 188 180 188 182 179 185 181 183 189 191 199 201 192 210 200 194 201 205 220 230 204 202 205 211 212 212 210 211 183 128 128 163 176 123 141
227 207 218 209 203 191 192 194 181 181 182 184 183 179 171 176 187 189 187 187 195 203 189 195 207 196 200 200 201 198 169 215 154 204 154 187 177 153 162 174 146 153 205 198 203
238 218 209 215 208 205 193 187 204 165 176 198 159 177 173 185 197 191 185 191 194 201 204 190 194 204 197 199 201 197 202 129 205 206 174 199 197 180 170 144 138 122 198 126 137
241 230 221 217 224 214 199 204 188 182 189 173 153 194 194 191 196 190 189 175 186 198 201 192 189 194 198 207 197 200 200 202 163 135 112 205 206 110 163 154 174 132 211 207 211
253 240 226 213 224 226 216 199 202 190 192 186 185 177 182 186 197 182 193 184 188 196 197 203 191 192 191 197 198 204 201 208 202 206 145 153 149 191 197 165 139 171 206 164 186
285 247 245 234 221 223 232 214 196 199 199 196 191 185 199 182 182 192 186 188 178 190 199 195 195 197 198 195 195 199 198 201 201 159 196 200 147 167 186 194 203 209 188 136 135
170 274 255 235 223 212 216 225 214 197 195 197 198 187 188 189 201 191 192 192 187 188 191 193 196 197 192 201 203 209 197 201 199 197 186 179 193 198 154 90 126 143 201 158 131
277 314 248 257 235 231 211 224 220 209 209 199 204 204 186 166 187 185 195 180 193 194 188 198 198 193 197 201 203 205 198 200 212 204 182 152 152 189 134 143 159 212 201 97 140
285 319 328 265 249 240 227 199 218 226 212 208 211 186 198 195 197 193 181 180 192 187 191 195 193 194 197 193 196 200 158 200 219 182 177 193 192 187 169 139 130 174 131 150 138
297 292 301 321 255 244 230 219 215 225 221 224 207 182 199 196 202 199 183 186 178 203 194 186 190 189 218 204 197 195 210 219 201 200 210 184 145 132 134 146 143 181 168 172 125
276 282 292 326 305 232 245 230 220 213 219 228 227 210 213 208 192 193 190 189 191 121 213 196 186 209 222 194 221 223 219 203 210 150 142 147 213 142 146 207 233 229 205 246 166
282 298 297 300 312 310 247 237 229 224 210 220 222 229 231 216 215 197 207 196 197 193 191 185 192 203 212 217 208 204 219 229 174 141 140 140 161 225 220 203 199 241 169 247 248

GFSSW_2pvu_pres_183.txt.gz
Presure
180 188 205 204 214 210 203 191 193 195 195 186 189 185 189 185 188 191 186 182 179 180 178 178 190 181 178 178 179 178 183 188 172 172 188 190 194 191 191 199 196 203 207 211 218
173 174 181 185 193 196 184 195 195 194 191 182 190 190 189 188 186 181 180 181 174 182 186 173 180 176 169 168 180 173 177 186 179 173 185 178 171 172 169 184 185 193 192 197 198
163 172 175 182 179 183 187 187 187 191 191 186 183 181 176 175 177 178 171 182 187 183 163 171 173 177 162 180 173 169 175 186 175 178 183 177 173 186 181 182 181 176 177 166 176
173 168 166 171 178 179 177 175 172 177 176 177 179 177 183 183 181 177 173 171 175 177 172 175 163 160 160 165 172 176 180 171 171 178 183 179 176 170 173 175 177 175 169 177 175
159 172 169 165 169 167 177 174 175 174 173 176 180 182 174 176 178 179 172 169 171 162 170 168 170 180 184 165 175 180 178 167 178 173 172 185 184 158 163 168 179 176 178 178 174
180 159 171 167 168 165 175 178 174 174 174 175 170 166 177 165 162 167 182 179 177 184 178 178 179 183 184 187 185 187 177 182 161 176 181 179 179 182 179 164 168 177 165 168 179
174 179 157 171 169 171 167 163 163 177 179 180 179 172 157 160 167 178 161 166 178 176 172 177 201 195 181 189 196 188 189 193 191 190 176 177 179 178 182 178 175 171 174 179 175
191 183 180 159 173 171 171 171 163 166 167 172 163 171 177 167 171 174 181 180 172 193 178 192 189 178 236 221 225 193 237 255 197 184 190 179 177 176 178 179 181 184 182 184 173
214 191 184 178 176 175 173 172 171 167 158 169 177 176 175 172 173 175 174 176 176 186 161 180 202 230 211 206 211 215 215 216 215 258 225 192 191 169 179 177 171 173 176 175 179
208 202 195 183 174 178 175 177 168 168 171 160 165 175 168 165 175 171 165 188 180 184 180 199 227 208 199 210 211 222 322 218 224 233 244 276 207 192 192 177 178 179 179 182 172
177 220 210 196 184 171 179 179 175 176 173 170 168 163 169 178 167 170 179 161 176 185 178 200 231 196 205 210 207 293 310 317 330 243 220 245 270 205 181 190 191 194 176 172 182
291 217 209 193 193 185 177 180 181 174 172 176 172 159 166 177 161 175 179 171 174 186 180 201 222 198 208 201 212 275 293 306 317 328 331 217 253 269 207 187 186 185 187 188 180
361 224 217 213 194 190 193 174 183 181 179 176 164 161 171 177 162 160 181 178 170 165 181 189 217 193 202 202 209 256 272 289 305 209 329 327 210 253 273 236 203 198 194 190 190
377 312 248 223 206 197 197 194 167 184 184 177 169 160 177 176 160 167 177 181 176 173 189 191 211 188 203 205 204 233 239 261 281 303 203 328 325 215 251 270 269 232 244 254 255
370 336 277 233 204 204 199 189 196 172 185 180 181 176 176 185 162 174 179 177 176 176 190 194 205 188 207 202 199 196 233 229 240 259 225 207 319 279 208 211 207 145 208 208 228
382 329 309 250 216 218 201 196 193 190 192 178 173 178 171 176 187 178 177 187 163 180 172 191 199 194 193 202 202 196 198 224 208 213 227 246 277 298 264 206 182 165 201 175 159
372 337 300 273 226 215 221 198 200 200 175 173 190 190 182 189 182 174 170 190 162 183 181 179 192 201 189 195 201 197 200 197 207 211 198 197 198 209 204 210 208 160 139 148 152
321 341 305 268 232 220 208 222 202 198 197 185 182 184 182 183 173 178 188 187 167 177 189 185 192 200 194 189 196 200 198 196 202 199 197 205 213 209 208 204 131 204 152 203 126
352 328 305 278 236 227 210 226 175 179 187 193 194 187 193 187 192 190 190 184 179 181 184 184 189 195 202 199 188 196 203 200 194 200 205 170 188 129 136 189 137 205 180 132 192
353 342 304 286 238 227 221 228 223 208 192 193 194 183 181 178 190 189 183 175 186 188 199 180 185 184 199 201 196 190 196 194 200 202 203 197 203 164 167 206 205 204 143 199 169
353 343 308 288 241 234 233 223 223 221 192 197 193 194 192 191 177 180 162 194 183 196 199 189 187 184 195 199 200 199 199 196 196 198 194 197 201 203 200 120 175 201 167 135 138
387 381 344 300 263 200 238 230 230 218 218 204 206 194 190 195 196 182 181 184 166 202 195 183 192 179 191 199 199 197 197 201 195 200 193 195 195 199 198 196 88 196 175 204 163
393 318 313 322 289 255 239 234 228 230 219 200 213 203 200 172 182 181 166 172 178 191 190 195 184 187 181 193 196 195 200 197 201 200 194 190 162 192 197 216 155 143 153 200 156
337 342 321 317 317 279 255 239 229 226 222 217 215 212 210 196 196 193 192 191 174 186 180 197 205 189 194 183 194 192 202 195 200 197 202 200 197 148 207 165 199 154 151 140 147
359 362 322 306 293 306 275 258 233 227 229 212 206 216 209 215 204 196 179 206 168 186 197 185 191 182 187 186 193 193 196 197 194 193 208 209 88 217 202 201 166 137 142 173 149
360 388 324 305 314 319 170 283 241 230 233 226 214 213 208 217 210 213 198 192 204 179 187 180 195 191 186 202 183 188 190 194 190 212 214 199 203 150 219 221 143 142 141 189 219
360 359 320 293 295 317 312 288 259 226 229 231 221 217 215 214 218 214 218 215 204 204 178 196 197 181 184 186 199 204 210 200 191 197 211 217 177 201 196 195 159 137 212 219 213

GFSSW_2pvu_pres_186.txt.gz
Presure
180 181 180 184 194 214 203 184 214 231 214 233 225 218 222 222 210 196 214 203 194 204 190 183 191 193 187 180 183 189 183 182 193 188 183 181 197 203 207 211 219 225 228 201 195
176 174 181 176 181 186 204 214 209 196 213 210 213 211 206 201 185 200 173 200 187 181 186 183 185 188 180 189 184 186 181 183 176 176 190 184 179 177 186 197 202 209 211 214 225
173 174 173 177 176 175 176 194 202 194 198 190 185 183 184 183 176 183 184 192 192 188 185 181 179 188 179 177 191 187 180 180 186 183 183 187 177 170 189 193 195 187 193 195 201
188 175 173 177 174 177 177 175 180 187 191 192 191 191 186 181 186 187 187 183 181 179 170 183 188 187 178 169 180 181 177 176 182 178 182 179 182 176 188 183 178 178 183 185 189
193 187 175 169 171 173 172 175 174 178 181 183 185 185 183 179 179 179 172 181 184 181 180 178 181 181 177 172 168 175 173 166 166 177 169 182 181 180 185 183 166 178 178 172 184
196 191 185 174 171 167 173 170 176 172 171 173 170 170 175 174 175 179 178 176 178 176 173 171 170 169 174 167 172 169 172 174 180 186 178 178 182 185 189 182 183 183 174 177 180
195 208 193 184 178 168 168 176 171 169 172 170 173 175 173 177 180 178 175 176 168 166 172 178 178 182 154 178 181 183 185 185 185 188 175 183 178 183 172 188 191 188 164 164 171
212 197 207 192 186 178 168 170 174 174 165 173 173 173 174 172 174 172 176 162 160 172 171 163 172 173 172 178 183 196 202 201 187 199 190 194 199 170 180 183 185 191 168 164 164
141 205 228 219 194 187 181 166 172 176 176 174 176 177 176 178 180 181 158 161 166 178 179 177 172 184 183 175 181 233 228 223 219 219 226 200 194 190 198 179 181 186 189 191 175
237 262 257 223 210 197 186 185 169 178 178 174 169 166 173 170 170 164 178 160 168 181 179 184 177 181 189 167 214 224 207 206 221 224 225 227 228 247 252 194 188 180 181 181 182
328 300 300 289 289 226 203 181 186 169 180 179 177 168 173 174 176 178 159 163 169 176 173 170 184 186 178 177 229 210 206 213 212 310 324 337 223 220 240 264 197 192 193 179 181
423 411 338 423 387 256 221 206 189 182 176 179 180 172 175 173 169 171 176 170 167 169 176 165 181 177 180 193 219 199 206 207 220 295 310 323 333 256 333 233 255 241 194 193 181
386 399 382 372 400 383 236 211 208 182 184 177 181 179 178 177 171 169 176 162 174 181 158 178 156 173 181 191 215 201 206 203 213 257 295 315 323 330 333 273 278 252 261 194 189
374 344 395 358 370 373 338 228 194 205 192 181 183 177 173 179 161 176 167 171 176 169 176 181 173 160 178 191 211 193 206 200 204 229 254 295 311 323 325 331 214 243 250 262 261
357 375 382 356 360 366 342 234 224 211 200 193 181 177 176 179 176 169 164 164 175 166 176 167 182 165 170 192 204 194 208 198 202 226 227 246 279 213 237 311 301 212 243 266 273
341 360 345 367 352 361 321 249 229 216 205 192 181 180 185 183 182 177 182 170 182 177 162 183 179 169 170 189 189 207 199 203 198 196 217 217 232 254 202 239 283 232 212 232 179
345 339 335 366 335 354 313 321 234 229 202 199 185 179 181 185 184 183 173 178 176 168 174 178 168 179 172 179 186 200 194 202 200 202 199 215 205 209 221 239 268 267 248 218 204
352 348 320 389 331 342 305 318 245 236 210 200 198 187 180 182 186 185 184 173 183 171 176 180 182 189 177 181 183 191 205 192 203 204 207 197 209 216 198 196 195 200 157 198 209
391 375 319 375 326 330 301 302 269 232 227 203 189 201 193 183 187 190 193 183 182 175 188 184 183 190 185 182 186 192 202 207 194 201 208 208 206 212 201 204 200 122 204 203 130
389 380 361 297 331 324 301 305 309 236 228 216 195 199 199 197 193 189 186 181 178 192 193 190 189 187 178 183 182 182 194 204 205 193 198 201 204 210 207 188 201 174 149 138 155
366 376 394 298 327 321 301 307 301 277 230 219 206 200 197 198 194 196 193 198 196 184 175 178 189 191 184 190 186 182 187 192 203 204 191 198 199 204 166 140 156 203 144 130 177
342 348 386 303 351 345 300 304 302 279 235 221 217 202 204 197 200 199 185 190 185 188 195 199 182 194 191 190 207 187 186 190 192 202 199 201 198 203 204 203 200 142 175 140 108
334 331 355 316 375 353 305 298 301 280 259 222 218 167 209 199 197 203 203 193 188 188 193 184 191 186 174 201 201 185 192 184 191 193 198 195 202 199 202 198 204 204 199 198 129
335 331 350 375 383 325 301 300 294 279 268 235 219 218 213 208 202 188 197 202 203 183 187 185 181 198 200 192 201 191 189 187 181 190 197 191 192 203 195 202 197 197 219 215 211
420 337 344 372 368 369 298 295 298 282 265 252 227 216 218 213 207 202 195 193 199 196 202 183 182 185 170 181 191 186 188 185 186 194 188 198 194 202 196 193 196 192 174 213 226
427 345 339 358 317 385 338 289 294 290 258 254 229 223 215 212 215 208 208 208 197 197 191 178 179 196 180 173 185 188 184 187 191 210 187 197 193 194 195 197 191 199 200 190 218
405 345 322 352 308 364 322 298 291 294 258 255 233 224 221 211 216 218 208 216 214 203 200 175 176 181 184 184 182 187 192 189 202 189 187 202 196 193 211 214 197 198 202 203 215

GFSSW_2pvu_pres_192.txt.gz
Presure
220 209 159 200 200 194 183 194 200 214 222 245 222 249 244 219 217 205 205 200 196 200 183 176 156 160 175 164 164 210 180 202 214 217 211 201 204 211 216 229 235 242 230 226 215
205 215 208 206 196 196 193 182 193 198 207 232 227 235 246 243 236 216 217 219 208 208 204 192 206 219 186 159 201 179 207 216 214 206 209 202 197 206 201 204 214 220 236 243 211
223 208 221 210 180 200 194 192 178 185 196 213 230 219 203 236 238 240 232 210 208 206 212 234 215 222 219 168 207 180 213 208 208 201 204 199 193 196 193 187 194 208 215 226 238
233 239 217 211 210 200 198 194 189 184 187 193 211 220 226 206 235 231 228 232 224 225 226 219 220 215 210 205 205 204 202 191 197 195 191 189 191 190 191 178 196 194 201 208 213
228 238 240 219 207 208 204 195 194 190 183 182 193 209 220 210 217 218 223 222 221 212 210 204 207 202 203 202 202 193 185 172 177 191 190 182 177 177 188 183 179 184 193 193 197
224 231 233 244 221 207 211 204 195 194 189 182 176 197 200 212 213 217 214 208 207 202 204 198 195 202 191 191 183 178 181 185 183 181 181 182 184 193 193 187 186 180 177 189 198
220 228 247 242 247 218 206 209 200 196 195 189 182 174 195 201 206 210 204 199 201 199 194 195 198 183 187 179 187 184 186 184 179 191 193 191 180 180 183 185 180 192 195 187 191
239 238 236 240 252 247 228 204 211 199 196 194 189 182 186 190 196 186 196 183 185 182 184 183 182 179 186 185 187 181 177 181 184 187 188 188 187 181 181 180 178 183 178 180 189
242 247 247 261 270 257 236 230 213 209 207 195 191 183 184 183 166 190 193 189 180 182 183 186 184 183 184 181 177 183 180 178 178 180 180 179 188 182 175 171 188 180 177 180 186
251 257 268 273 289 280 244 232 237 216 228 210 199 189 186 187 187 184 187 189 188 189 187 182 184 186 183 177 182 178 175 176 177 177 182 185 185 162 189 192 191 192 200 200 194
291 276 274 240 243 248 242 237 226 233 225 222 202 196 191 188 183 183 188 189 188 187 186 185 184 183 176 179 177 176 171 176 178 176 175 179 187 189 189 187 223 225 231 234 243
253 252 244 231 238 241 230 238 236 234 240 222 222 197 197 184 189 181 182 188 186 184 185 186 180 180 181 180 175 168 169 175 176 169 170 178 197 223 184 216 218 217 257 230 228
248 243 244 244 243 241 242 242 250 236 245 238 227 215 201 201 192 190 180 186 185 185 181 179 178 176 183 182 175 167 166 167 174 177 178 177 193 222 204 215 213 337 338 340 340
261 300 317 325 318 318 315 302 308 319 267 242 241 208 212 207 198 197 191 180 187 178 182 178 181 179 181 182 172 167 170 176 171 177 182 188 180 220 204 211 221 332 330 332 332
404 403 412 420 410 409 399 386 386 385 385 434 254 239 223 211 202 199 195 192 180 183 181 177 182 178 183 178 168 168 166 169 177 178 184 186 174 216 199 210 218 239 310 317 320
425 408 404 391 403 391 384 374 373 374 382 409 400 410 234 225 206 204 200 201 191 181 184 181 184 181 181 183 170 166 170 178 175 172 174 185 188 211 202 202 206 217 260 274 295
455 430 406 390 372 377 373 363 370 377 379 396 407 380 416 232 217 206 206 189 191 171 185 182 183 181 188 186 170 168 175 185 176 177 171 171 183 204 203 200 201 210 219 245 210
478 447 412 398 374 363 381 357 362 369 167 370 353 392 414 384 233 212 206 201 197 190 190 186 187 184 187 181 176 174 184 181 178 168 181 179 185 201 209 199 213 199 207 210 222
460 475 434 395 374 354 358 360 363 359 335 352 334 365 390 376 254 217 208 203 204 195 191 185 185 186 180 179 185 175 171 181 188 184 184 183 180 194 206 198 201 209 209 203 205
447 451 448 399 384 353 355 382 345 330 333 326 355 324 360 358 335 231 214 205 202 190 195 187 191 193 185 189 186 189 170 176 182 191 174 183 174 185 196 207 204 202 207 205 194
436 426 438 403 399 358 364 363 340 318 327 319 341 364 339 329 326 237 215 208 200 204 193 194 192 191 193 187 169 169 173 169 178 176 195 174 186 182 187 194 203 205 199 200 202
430 416 420 445 383 360 360 357 328 310 317 337 331 352 326 317 308 261 222 211 207 199 202 187 193 196 189 194 191 171 167 169 175 181 188 196 186 187 193 186 193 199 206 204 203
422 428 367 412 403 358 351 323 326 311 315 324 320 352 321 306 315 293 227 215 209 201 199 198 191 199 195 194 186 188 177 172 174 183 187 190 196 189 188 189 185 188 196 200 205
406 378 391 405 398 351 348 331 319 315 309 327 311 343 310 306 306 295 229 220 209 204 206 202 197 190 200 188 183 180 192 186 178 184 176 184 194 197 185 189 196 203 199 194 196
406 383 404 376 382 341 335 325 308 342 304 324 315 344 306 299 292 288 241 226 217 209 203 199 202 201 195 197 194 193 190 190 171 188 175 195 190 193 190 203 197 209 201 201 194
374 391 385 379 345 338 339 339 321 311 329 320 307 328 295 294 290 271 267 229 221 202 209 192 192 202 205 198 191 197 195 192 177 192 169 206 186 187 198 181 195 198 206 208 205
378 366 372 371 341 328 333 355 340 315 297 305 294 314 286 292 289 270 265 236 227 220 214 206 204 202 202 206 197 186 184 189 192 195 188 192 183 203 185 199 183 199 206 190 191

GFSSW_2pvu_pres_198.txt.gz
Presure
166 145 243 233 242 230 229 219 211 235 222 218 198 202 216 226 252 270 237 235 214 208 219 210 191 170 163 170 182 157 162 165 174 182 171 175 181 172 174 161 180 174 169 188 169
274 273 250 249 249 235 233 219 209 208 217 226 219 205 193 217 216 244 270 239 235 208 206 207 183 184 168 164 171 168 169 164 165 181 183 178 181 180 181 181 174 159 179 183 180
292 261 263 251 261 248 224 231 221 204 214 215 219 211 207 188 211 209 237 265 273 240 206 206 204 197 192 179 169 170 167 174 173 152 184 183 160 172 165 177 175 168 160 171 228
284 226 264 250 260 263 255 229 229 216 212 218 191 216 205 207 191 206 208 233 241 281 240 241 238 209 203 200 206 190 194 183 175 180 178 184 161 173 175 173 168 166 171 207 225
293 193 278 259 277 273 253 243 232 225 212 216 219 215 217 205 207 194 203 209 222 258 269 231 234 231 225 222 226 210 197 207 190 202 185 164 181 172 178 173 161 174 194 218 212
272 209 284 285 273 284 269 253 248 228 227 207 221 223 205 217 202 201 200 197 207 237 259 259 225 226 226 218 205 214 210 207 198 196 197 174 203 180 158 189 216 173 211 215 210
312 223 257 275 267 282 266 257 251 244 232 217 211 218 219 200 211 203 186 203 192 209 227 258 235 220 218 211 214 212 198 196 191 190 190 197 180 185 219 216 212 208 208 204 201
167 313 293 295 158 276 276 265 240 241 229 224 224 213 210 219 202 206 204 193 196 199 223 243 246 238 212 211 207 209 207 197 212 196 198 216 209 171 218 204 195 198 198 199 194
333 322 317 290 293 285 276 266 264 245 233 222 235 232 209 207 222 203 203 201 198 189 205 226 241 239 238 209 206 203 203 207 218 217 214 209 217 206 190 198 196 192 187 190 194
183 305 292 287 285 298 291 291 280 256 241 241 232 226 214 204 211 225 206 205 193 198 188 209 230 235 229 214 211 205 212 210 209 208 208 214 202 205 200 200 188 182 189 188 186
290 288 281 265 277 277 271 279 294 278 250 240 234 235 229 212 206 208 210 204 204 197 193 196 225 229 217 211 212 215 217 214 207 209 211 200 205 200 197 189 183 186 188 190 190
282 292 283 278 262 264 263 256 282 275 274 265 254 234 234 225 214 215 223 204 205 197 196 194 195 221 219 212 213 214 205 202 207 199 202 202 201 195 186 182 187 187 187 182 190
301 284 277 260 264 263 253 252 257 261 282 265 265 258 237 232 222 217 214 220 199 205 195 191 188 215 218 214 209 202 198 190 198 202 194 201 191 188 185 187 186 185 182 186 185
289 278 271 275 280 268 264 257 255 251 253 260 256 275 263 255 232 224 223 210 213 199 202 192 190 190 214 216 207 199 201 200 190 194 201 190 187 186 186 186 185 183 182 186 189
279 295 273 315 493 490 465 456 439 439 285 268 249 248 251 257 251 235 234 226 226 207 211 194 194 190 207 208 204 189 198 197 193 196 206 186 189 185 184 184 186 180 181 185 182
303 380 516 505 496 481 470 460 429 432 437 207 223 161 242 247 256 240 240 251 236 224 204 207 191 198 192 214 205 191 197 191 195 195 203 191 182 182 182 184 181 179 183 181 184
437 505 497 480 470 440 421 428 419 409 409 422 428 430 269 241 243 251 256 256 247 227 215 212 202 188 193 204 210 195 192 194 192 190 181 184 187 183 184 180 178 172 177 185 185
498 481 468 457 473 410 404 395 377 388 405 394 385 393 409 387 249 241 241 253 252 231 226 208 210 197 194 190 204 195 192 196 188 191 183 177 188 181 185 182 174 170 178 183 173
480 452 454 450 468 424 432 386 368 375 383 374 388 393 378 380 399 249 244 239 255 239 230 224 208 204 196 197 189 201 200 197 197 193 190 188 185 180 184 182 180 169 175 179 184
463 462 443 448 450 439 413 399 374 363 380 365 360 350 353 385 356 372 252 245 243 255 233 227 222 214 202 199 199 195 196 194 192 194 192 189 185 176 179 186 179 174 175 172 177
459 456 433 432 428 423 420 406 376 360 381 341 359 356 351 345 358 379 390 247 243 246 248 225 227 219 210 203 203 202 196 190 199 194 191 186 184 183 182 184 176 171 178 181 182
441 444 434 428 429 422 413 401 380 352 355 347 351 338 350 332 361 367 365 388 242 244 243 240 230 228 224 209 200 205 193 202 181 190 192 188 181 181 187 182 182 172 180 178 187
434 431 437 427 388 405 416 387 369 348 339 349 341 343 327 346 344 358 354 371 265 243 240 236 232 231 234 220 209 191 204 195 193 173 181 188 177 179 186 174 181 179 173 180 174
442 428 442 389 370 382 419 385 362 358 351 344 342 335 325 326 340 346 354 356 359 261 244 242 240 238 223 227 208 203 190 198 192 196 183 188 182 185 188 186 191 177 184 183 180
431 420 388 374 378 390 405 402 387 361 385 329 331 328 338 328 330 335 341 342 326 355 354 246 237 238 226 231 228 208 203 195 199 184 181 185 186 187 189 184 187 175 181 186 184
431 410 391 381 404 382 416 386 369 384 376 335 319 326 323 324 326 316 324 313 315 330 354 354 241 234 238 228 230 226 210 204 195 177 174 177 182 188 194 182 182 186 171 180 179
435 396 386 376 392 364 362 374 390 371 355 324 330 318 313 307 309 316 306 322 319 318 323 356 375 248 231 230 229 232 214 207 204 193 193 183 187 186 185 189 179 181 184 173 179

GFSSW_2pvu_pres_201.txt.gz
Presure
219 187 238 282 270 255 253 228 218 234 223 225 114 192 218 206 209 243 258 241 208 208 220 210 200 193 185 172 174 174 167 158 165 166 154 168 171 178 174 181 168 165 168 166 172
150 166 207 210 143 204 256 250 243 223 233 217 219 218 224 225 203 202 230 254 273 230 204 205 216 214 199 189 183 170 174 168 172 160 174 158 168 175 168 174 183 184 198 193 185
241 234 285 256 292 276 264 257 248 239 245 228 229 215 222 210 222 201 201 220 236 261 277 208 209 206 217 196 190 183 177 174 183 163 161 171 156 161 181 181 172 171 182 189 182
310 162 325 271 314 234 286 265 245 251 235 238 227 212 221 202 214 220 202 199 208 225 252 270 250 220 212 197 196 189 189 191 168 186 175 174 176 157 165 167 179 186 177 171 182
337 137 210 231 270 314 269 283 259 255 244 248 233 224 222 203 214 227 216 211 195 201 217 241 264 272 225 220 217 205 200 203 181 170 170 181 182 174 161 161 178 186 186 187 174
241 200 197 331 146 288 306 288 278 248 258 251 239 232 228 210 210 214 227 213 213 196 194 213 236 266 304 234 220 206 207 209 195 179 172 169 170 176 168 175 174 180 183 186 171
141 138 326 324 320 326 315 310 284 272 254 258 234 243 224 217 224 203 222 214 211 209 199 193 216 242 221 277 239 233 209 203 200 186 186 182 177 172 181 175 184 182 202 171 195
145 149 307 286 352 349 328 309 268 275 257 260 271 233 215 229 214 210 204 212 203 212 205 197 192 215 242 270 237 232 235 231 228 214 210 212 214 203 197 200 198 198 188 181 227
163 198 331 347 315 285 303 323 292 291 266 258 273 257 241 231 219 218 205 206 212 205 207 202 198 190 217 247 263 229 222 226 224 224 222 215 214 203 201 203 197 192 194 218 214
135 355 294 315 312 302 297 315 302 301 280 260 264 254 235 232 240 212 206 212 208 216 200 208 198 202 188 227 251 247 219 217 220 222 217 208 197 202 195 195 200 196 215 209 181
325 221 299 300 296 295 289 298 302 297 297 277 265 256 243 234 224 232 234 207 210 204 219 200 202 193 197 199 231 211 228 220 219 216 210 207 203 197 190 189 218 217 204 215 207
290 304 308 303 303 300 302 286 277 291 298 301 280 261 272 241 235 226 227 225 223 211 201 219 208 199 198 189 212 235 239 232 215 210 203 204 206 206 209 210 216 208 210 201 197
321 325 309 289 290 278 274 270 263 256 263 298 296 290 263 269 230 228 224 236 235 230 220 215 205 202 200 201 186 230 234 238 224 208 203 202 207 207 212 205 207 206 198 195 201
308 256 296 293 282 277 284 282 270 264 265 262 265 257 279 264 263 229 218 222 227 229 220 206 218 200 199 194 194 200 230 232 219 213 212 208 208 210 204 206 206 196 197 197 192
319 305 309 302 532 529 511 519 445 369 294 270 213 203 252 272 254 254 230 222 221 224 218 213 218 207 204 199 198 187 214 232 217 220 217 215 216 203 204 202 195 201 193 191 183
316 317 351 497 487 486 483 488 421 415 433 449 323 264 250 265 255 259 251 234 229 225 225 219 206 222 204 204 198 202 197 231 224 213 218 211 203 201 195 194 198 188 188 186 186
318 357 499 479 470 471 472 433 399 398 406 420 438 442 291 254 263 251 249 247 247 229 219 220 212 216 209 205 203 196 196 211 227 216 212 202 200 172 197 190 197 181 182 182 186
335 498 472 465 466 464 460 422 402 385 381 394 403 418 397 389 261 260 256 245 244 251 246 230 220 210 217 207 201 195 193 195 224 213 203 191 199 185 186 193 191 185 180 186 185
487 471 464 458 454 453 438 413 388 387 371 381 378 397 383 388 401 264 257 255 241 240 241 242 220 216 214 214 206 201 197 200 193 213 204 193 193 187 188 195 186 184 180 187 186
473 459 459 460 447 454 415 404 390 394 374 350 356 361 386 365 390 413 264 248 244 243 243 247 245 226 218 224 213 210 203 200 194 218 208 198 193 188 187 192 185 184 181 183 181
460 453 447 441 445 445 422 402 378 376 376 365 370 366 355 364 367 374 385 260 248 246 246 251 258 237 232 222 224 209 207 199 200 199 212 198 189 191 188 188 185 183 182 184 181
450 438 442 438 436 422 431 421 409 365 359 341 331 369 337 343 345 359 369 369 264 248 242 244 244 256 234 236 230 218 212 207 201 191 211 199 192 192 187 191 193 184 186 184 182
441 434 433 432 424 422 416 401 409 367 361 343 328 332 348 345 349 345 356 378 391 286 240 236 246 250 257 256 247 233 212 211 197 199 185 207 192 192 190 194 194 187 186 186 179
447 436 424 437 410 380 384 399 417 367 369 363 341 329 339 343 343 352 343 350 366 375 257 244 247 244 239 263 252 235 224 213 209 202 191 185 190 193 190 194 191 194 189 183 184
448 435 434 407 391 376 391 384 387 373 357 356 353 333 330 349 325 329 327 361 354 360 357 259 248 245 238 253 252 239 231 218 217 201 200 192 191 186 190 195 193 193 192 182 183
450 446 433 399 371 381 382 382 430 377 360 340 318 333 342 343 334 331 332 360 339 336 342 371 264 245 236 239 250 245 235 234 222 215 204 190 192 192 188 182 188 190 196 190 183
457 436 410 373 373 387 375 402 395 378 359 333 329 332 340 334 324 338 341 324 318 323 347 346 363 381 242 240 229 249 245 229 230 219 204 195 192 194 188 185 184 177 184 188 190

GFSSW_2pvu_pres_207.txt.gz
Presure
135 134 142 132 349 150 133 163 205 246 176 238 262 249 240 233 232 228 232 229 292 267 227 200 218 210 201 174 176 179 170 167 159 170 171 160 163 179 162 138 174 145 153 151 93
167 174 136 192 133 141 371 142 337 239 214 264 261 256 254 236 234 141 232 232 226 269 260 232 207 214 204 199 186 182 176 169 177 168 175 162 169 152 169 184 169 172 176 163 153
137 167 111 232 132 136 382 176 274 312 157 304 177 278 254 248 238 229 229 232 226 225 258 249 242 216 208 204 194 190 183 180 162 176 175 166 173 165 121 154 183 180 155 148 165
219 206 114 145 125 262 368 357 355 327 321 311 238 255 266 257 239 247 220 229 227 236 222 240 271 254 197 212 197 196 192 185 174 173 167 173 165 170 165 173 173 131 144 176 160
161 229 117 134 183 375 144 355 340 347 339 321 301 286 256 260 248 238 243 232 158 224 213 220 232 274 267 226 222 195 201 188 181 179 181 166 169 164 158 167 159 168 174 133 191
143 144 116 104 172 346 365 348 350 334 323 350 339 289 276 256 263 123 230 238 228 213 217 222 218 229 269 258 234 220 207 201 190 183 180 178 165 166 168 162 165 165 168 167 152
170 152 112 134 347 361 352 357 342 346 292 333 335 319 346 298 251 259 244 233 231 228 216 218 234 217 223 249 272 237 209 212 206 195 187 186 178 171 165 167 162 161 169 169 169
123 141 213 125 283 331 135 358 344 334 325 325 321 325 332 324 289 252 256 227 248 223 221 211 218 231 213 220 237 274 238 219 217 210 197 189 186 185 179 168 178 170 162 165 132
119 228 156 228 306 312 310 341 329 338 311 326 325 314 335 316 315 267 260 244 238 238 244 218 210 220 229 210 212 225 249 274 227 213 216 215 189 189 190 186 175 179 178 170 170
145 136 245 160 339 144 338 334 323 310 302 344 335 315 339 309 309 321 253 260 240 227 227 231 215 206 221 224 207 202 209 226 267 267 218 212 207 218 214 195 194 194 186 180 168
263 125 283 334 144 349 335 313 308 304 299 286 307 326 314 307 308 318 321 251 254 237 234 226 233 214 204 195 217 209 204 204 213 240 278 314 197 206 205 209 207 197 190 185 179
173 132 315 323 324 347 326 309 296 292 139 279 282 288 258 302 289 303 312 292 274 244 231 231 225 224 208 208 209 215 215 203 206 204 219 299 294 256 217 205 198 204 205 204 201
267 239 343 163 263 339 319 307 301 438 306 441 201 127 260 295 293 289 300 283 277 261 244 229 224 213 215 212 214 213 210 210 204 203 198 215 284 254 242 233 223 217 195 193 195
143 300 228 366 346 331 315 463 492 473 477 426 537 335 294 266 272 283 272 289 277 264 264 243 232 221 220 221 209 221 210 214 206 206 202 200 222 271 244 234 226 213 211 209 202
349 337 359 349 336 328 324 482 470 474 455 447 474 82 367 293 244 282 275 288 194 258 255 248 239 220 224 207 212 202 214 210 211 206 212 199 197 277 254 239 228 223 215 212 209
331 300 329 337 337 318 475 476 463 459 456 424 416 415 427 356 284 247 279 278 289 266 262 248 245 236 216 220 212 213 212 214 211 214 205 202 195 195 264 237 229 226 227 227 226
332 364 350 141 321 396 481 448 444 451 445 401 413 421 396 426 307 273 256 275 277 277 264 252 243 251 232 225 216 213 210 211 201 216 216 203 202 184 203 253 229 221 220 219 218
322 329 336 328 321 476 451 442 443 432 418 387 367 375 392 388 428 292 258 256 276 287 254 253 249 245 260 224 223 210 210 206 211 188 210 207 201 193 189 242 231 218 213 213 215
343 347 333 325 347 463 445 449 434 425 405 373 370 372 358 373 376 421 282 253 256 270 279 251 238 241 234 235 220 210 203 207 207 212 213 213 205 192 187 234 232 217 214 210 212
347 303 325 322 468 439 439 433 432 420 388 367 373 362 364 357 348 385 347 268 251 268 274 266 247 234 237 232 230 227 208 209 210 199 199 214 209 191 193 187 235 220 219 211 207
343 331 320 314 450 427 438 430 436 417 383 389 384 360 355 368 346 369 389 293 253 253 260 274 263 251 240 237 239 226 223 219 218 225 217 195 203 198 192 189 233 225 222 213 206
335 324 320 309 460 442 440 430 439 396 380 367 374 360 355 361 355 350 369 387 287 254 253 256 264 256 245 238 236 236 245 232 222 210 217 213 202 202 194 192 190 234 221 214 210
163 317 312 302 450 440 430 416 430 400 392 368 351 363 357 354 351 345 362 363 381 270 254 252 250 260 251 234 239 234 236 229 211 224 221 216 202 198 195 192 189 219 222 216 208
327 313 308 297 458 434 409 405 419 399 372 363 345 341 341 344 343 343 342 350 362 357 256 256 252 252 262 243 233 228 226 88 230 236 211 225 214 210 196 195 191 190 224 216 209
317 307 304 429 429 396 386 396 410 413 372 357 341 334 352 341 337 332 334 343 363 357 337 259 253 249 240 260 253 242 234 231 229 219 225 228 217 214 197 194 193 189 221 214 215
310 303 297 447 413 397 382 383 394 388 378 389 343 337 334 324 324 332 337 327 342 364 349 354 251 252 251 242 245 264 258 237 231 230 226 235 213 213 205 194 193 193 190 214 214
306 296 291 408 405 396 379 384 380 376 402 402 382 343 347 323 326 328 334 330 328 336 354 369 363 254 250 252 247 247 243 181 225 227 218 221 217 198 212 199 196 193 192 207 214

GFSSW_2pvu_pres_210.txt.gz
Presure
145 138 153 126 110 157 192 195 325 367 376 355 215 292 150 252 244 239 244 246 240 265 242 228 211 203 197 216 212 204 190 180 179 173 173 148 161 167 160 161 193 161 168 160 174
139 143 136 192 186 179 118 321 320 374 316 364 261 300 234 207 238 249 237 229 237 241 259 238 216 210 219 209 219 212 196 183 179 180 175 172 165 145 161 157 161 197 175 167 164
136 143 155 146 181 232 110 318 281 364 136 159 358 337 290 282 201 254 249 238 232 234 237 277 232 224 209 220 198 219 186 190 181 184 175 176 172 169 170 163 158 164 190 115 165
134 155 208 121 250 126 140 319 165 383 183 166 366 351 319 288 272 255 245 251 240 232 233 234 278 236 218 222 210 206 216 202 189 179 182 173 176 176 168 160 167 126 166 182 188
133 136 143 124 211 107 207 353 326 358 191 351 351 302 345 319 287 260 253 241 241 240 231 227 236 262 227 219 209 211 216 205 202 187 174 186 177 173 167 159 161 159 164 157 183
152 120 168 120 181 158 318 334 333 360 360 344 341 268 355 337 296 282 252 249 242 223 236 231 222 228 270 223 221 202 204 209 202 194 184 176 180 178 170 165 172 161 165 156 162
133 137 177 117 161 215 334 325 343 151 356 351 344 333 351 354 315 285 277 249 250 246 236 234 232 225 233 259 227 217 204 208 209 205 196 176 176 178 171 170 168 171 163 168 164
131 145 133 251 228 252 330 335 354 258 352 343 344 349 335 329 332 321 271 268 249 245 229 240 234 231 217 226 250 226 220 208 210 208 199 197 186 180 180 177 171 174 163 167 169
134 160 226 142 119 341 324 340 311 349 345 341 331 345 345 315 326 328 324 263 261 251 243 232 236 235 232 215 219 239 255 222 201 200 207 203 193 190 183 181 179 169 171 176 171
147 132 172 207 278 336 335 297 359 239 344 340 339 328 319 319 314 312 330 317 259 254 249 243 249 241 230 221 224 206 217 239 279 218 189 209 198 186 189 194 186 181 179 176 174
233 124 150 146 193 340 182 374 357 135 330 99 315 307 313 309 318 312 314 331 324 263 249 248 242 245 234 218 215 224 212 210 234 280 227 221 210 212 189 200 197 188 185 179 177
134 105 159 141 321 356 308 356 287 338 316 297 286 286 287 282 182 316 307 313 333 299 257 251 252 243 228 228 218 213 226 220 208 230 260 263 213 221 215 200 200 200 191 189 183
135 112 280 339 350 188 270 353 340 333 323 544 530 151 85 90 91 205 305 295 325 326 322 254 252 236 239 227 221 215 212 225 220 208 215 237 263 253 225 221 216 211 208 201 194
164 136 235 282 384 237 351 335 335 325 498 497 462 477 527 499 300 271 268 294 296 320 307 298 250 243 238 233 236 216 205 213 225 222 203 209 221 234 258 286 274 221 217 218 215
136 260 158 350 321 133 345 333 322 486 505 491 459 426 499 513 350 219 263 263 296 298 111 109 180 240 248 235 232 224 215 207 217 224 219 213 205 201 214 218 291 305 263 235 207
170 162 203 281 368 342 339 327 316 461 453 444 418 381 417 490 375 412 282 267 263 287 295 307 298 248 241 231 236 214 217 214 206 216 220 223 217 201 200 199 208 267 276 259 242
193 235 204 369 249 285 329 318 457 453 464 415 412 395 395 399 469 430 360 276 262 281 298 301 302 268 242 214 237 224 219 224 214 217 217 212 218 204 215 199 199 201 272 254 237
152 329 274 357 339 231 323 318 451 439 443 407 392 393 385 394 402 437 411 291 270 259 284 293 299 281 263 244 246 227 223 235 217 217 190 214 215 211 199 201 203 193 206 256 239
153 235 338 344 298 327 315 450 452 429 433 391 381 368 366 372 378 399 419 402 279 254 264 286 298 274 256 254 249 242 231 228 220 216 212 215 210 204 206 206 200 208 192 248 243
327 362 309 226 178 317 308 445 438 437 417 393 381 364 355 346 346 376 404 427 295 266 252 263 278 281 258 257 269 249 223 219 222 227 212 204 213 201 203 210 202 203 200 191 244
145 269 347 335 323 311 412 452 434 434 407 384 372 366 350 350 343 369 396 386 383 272 257 253 279 292 268 257 257 255 246 233 223 216 211 205 200 206 209 208 206 203 203 197 245
349 214 345 329 314 304 458 438 433 439 397 390 369 361 352 343 340 347 357 396 380 317 259 258 250 279 266 258 249 266 245 244 231 212 215 204 204 198 198 187 206 206 200 205 192
347 341 337 172 308 297 447 406 422 438 403 387 385 366 359 350 342 339 363 362 380 381 269 259 259 267 292 265 252 246 244 242 235 227 218 214 203 199 195 182 203 209 206 198 200
149 339 330 315 308 294 419 411 420 436 411 383 370 364 358 346 351 338 342 355 364 382 363 263 258 260 264 277 259 239 238 232 198 229 221 215 215 200 193 200 192 201 208 204 197
339 328 151 306 301 289 382 411 401 430 397 375 353 345 352 356 344 339 334 342 358 365 353 336 256 258 247 270 258 251 235 240 238 253 229 219 209 210 200 196 193 194 204 206 200
140 326 314 305 299 287 371 391 392 394 430 357 358 359 343 349 328 328 323 338 338 345 330 361 321 256 255 253 271 256 247 238 230 236 258 216 225 212 200 204 204 201 195 203 203
216 321 306 300 295 283 385 397 391 394 390 402 367 347 333 327 324 316 323 324 332 344 338 325 360 299 255 255 249 265 258 245 234 234 229 248 216 211 207 211 112 205 200 201 207